| time (UTC) | temp F | wind direction | speed knots | gust knots | rain 1hr in | rain 24hr in | rain mn in | humidity % | barometer mb |
| 20260509002433 | 65 | 218 | 0.0 | 2.6 | 0.00 | 0.00 | 0.00 | 51 | 1008.6 |
| 20260509002006 | 65 | 232 | 0.0 | 2.6 | 0.00 | 0.00 | 0.00 | 50 | 1008.5 |
| 20260509001439 | 65 | 187 | 0.9 | 3.5 | 0.00 | 0.00 | 0.00 | 49 | 1008.6 |
| 20260509000449 | 65 | 216 | 1.7 | 3.5 | 0.00 | 0.00 | 0.00 | 50 | 1008.6 |
| 20260508235421 | 66 | 226 | 0.9 | 5.2 | 0.00 | 0.00 | 0.00 | 49 | 1008.8 |
| 20260508234954 | 66 | 206 | 1.7 | 5.2 | 0.00 | 0.00 | 0.00 | 49 | 1008.7 |
| 20260508234427 | 66 | 215 | 0.9 | 2.6 | 0.00 | 0.00 | 0.00 | 48 | 1008.8 |
| 20260508233440 | 66 | 223 | 0.9 | 3.5 | 0.00 | 0.00 | 0.00 | 49 | 1008.6 |
| 20260508232912 | 66 | 207 | 0.9 | 3.5 | 0.00 | 0.00 | 0.00 | 47 | 1008.6 |
| 20260508232002 | 67 | 188 | 0.9 | 4.3 | 0.00 | 0.00 | 0.00 | 48 | 1008.8 |
| 20260508230955 | 67 | 219 | 1.7 | 6.1 | 0.00 | 0.00 | 0.00 | 48 | 1008.7 |
| 20260508230428 | 67 | 206 | 2.6 | 6.1 | 0.00 | 0.00 | 0.00 | 47 | 1008.7 |
| 20260508225414 | 67 | 226 | 1.7 | 3.5 | 0.00 | 0.00 | 0.00 | 48 | 1008.5 |
| 20260508224947 | 67 | 278 | 0.0 | 1.7 | 0.00 | 0.00 | 0.00 | 49 | 1008.6 |
| 20260508224420 | 67 | 239 | 0.0 | 6.1 | 0.00 | 0.00 | 0.00 | 48 | 1008.6 |
| 20260508223953 | 67 | 213 | 2.6 | 7.0 | 0.00 | 0.00 | 0.00 | 47 | 1008.6 |
| 20260508223410 | 67 | 180 | 5.2 | 7.0 | 0.00 | 0.00 | 0.00 | 48 | 1008.5 |
| 20260508222459 | 68 | 206 | 1.7 | 3.5 | 0.00 | 0.00 | 0.00 | 50 | 1008.4 |
| 20260508221448 | 69 | 218 | 1.7 | 4.3 | 0.00 | 0.00 | 0.00 | 48 | 1008.4 |
| 20260508220921 | 69 | 245 | 0.9 | 4.3 | 0.00 | 0.00 | 0.00 | 48 | 1008.4 |
| 20260508220456 | 68 | 237 | 2.6 | 6.1 | 0.00 | 0.00 | 0.00 | 47 | 1008.3 |
| 20260508214944 | 69 | 246 | 3.5 | 8.7 | 0.00 | 0.00 | 0.00 | 45 | 1008.5 |
| 20260508214416 | 69 | 223 | 2.6 | 7.8 | 0.00 | 0.00 | 0.00 | 45 | 1008.5 |
| 20260508212942 | 71 | 227 | 2.6 | 10.4 | 0.00 | 0.00 | 0.00 | 43 | 1008.5 |
| 20260508211931 | 70 | 241 | 6.1 | 9.6 | 0.00 | 0.00 | 0.00 | 42 | 1008.6 |
| 20260508210927 | 70 | 255 | 2.6 | 7.0 | 0.00 | 0.00 | 0.00 | 46 | 1008.6 |
| 20260508205936 | 70 | 211 | 4.3 | 7.0 | 0.00 | 0.00 | 0.00 | 46 | 1008.9 |
| 20260508205409 | 71 | 280 | 0.9 | 7.8 | 0.00 | 0.00 | 0.00 | 47 | 1009.0 |
| 20260508204459 | 71 | 213 | 1.7 | 8.7 | 0.00 | 0.00 | 0.00 | 43 | 1009.1 |
| 20260508203931 | 71 | 257 | 4.3 | 8.7 | 0.00 | 0.00 | 0.00 | 45 | 1009.2 |
| 20260508202927 | 71 | 239 | 4.3 | 8.7 | 0.00 | 0.00 | 0.00 | 42 | 1009.4 |
| 20260508202502 | 71 | 231 | 3.5 | 9.6 | 0.00 | 0.00 | 0.00 | 42 | 1009.3 |
| 20260508201935 | 70 | 235 | 6.1 | 9.6 | 0.00 | 0.00 | 0.00 | 43 | 1009.4 |
| 20260508200945 | 69 | 202 | 7.0 | 9.6 | 0.00 | 0.00 | 0.00 | 42 | 1009.8 |
| 20260508200458 | 69 | 241 | 4.3 | 8.7 | 0.00 | 0.00 | 0.00 | 42 | 1009.8 |
| 20260508194908 | 69 | 231 | 2.6 | 10.4 | 0.00 | 0.00 | 0.00 | 43 | 1009.9 |
| 20260508194441 | 69 | 212 | 4.3 | 10.4 | 0.00 | 0.00 | 0.00 | 42 | 1010.0 |
| 20260508193913 | 70 | 214 | 5.2 | 10.4 | 0.00 | 0.00 | 0.00 | 39 | 1009.9 |
| 20260508193447 | 70 | 197 | 3.5 | 10.4 | 0.00 | 0.00 | 0.00 | 43 | 1009.9 |
| 20260508192436 | 69 | 203 | 4.3 | 8.7 | 0.00 | 0.00 | 0.00 | 40 | 1010.0 |
| 20260508191432 | 69 | 230 | 5.2 | 11.3 | 0.00 | 0.00 | 0.00 | 44 | 1010.3 |
| 20260508191006 | 69 | 230 | 10.4 | 11.3 | 0.00 | 0.00 | 0.00 | 42 | 1010.2 |
| 20260508190439 | 69 | 226 | 7.0 | 10.4 | 0.00 | 0.00 | 0.00 | 41 | 1010.3 |
| 20260508185909 | 69 | 232 | 5.2 | 12.2 | 0.00 | 0.00 | 0.00 | 42 | 1010.4 |
| 20260508185443 | 69 | 228 | 6.1 | 12.2 | 0.00 | 0.00 | 0.00 | 41 | 1010.5 |
| 20260508184916 | 69 | 280 | 7.8 | 10.4 | 0.00 | 0.00 | 0.00 | 42 | 1010.5 |
| 20260508183910 | 69 | 232 | 9.6 | 13.0 | 0.00 | 0.00 | 0.00 | 43 | 1010.7 |
| 20260508183444 | 69 | 285 | 7.0 | 9.6 | 0.00 | 0.00 | 0.00 | 45 | 1010.9 |
| 20260508182917 | 68 | 228 | 4.3 | 8.7 | 0.00 | 0.00 | 0.00 | 42 | 1010.8 |
| 20260508182451 | 69 | 241 | 3.5 | 9.6 | 0.00 | 0.00 | 0.00 | 45 | 1011.1 |
| 20260508181924 | 69 | 233 | 5.2 | 9.6 | 0.00 | 0.00 | 0.00 | 45 | 1011.1 |
| 20260508181457 | 69 | 208 | 2.6 | 11.3 | 0.00 | 0.00 | 0.00 | 46 | 1011.1 |
| 20260508175907 | 69 | 234 | 7.0 | 9.6 | 0.00 | 0.00 | 0.00 | 43 | 1011.3 |
| 20260508175441 | 68 | 224 | 1.7 | 9.6 | 0.00 | 0.00 | 0.00 | 53 | 1011.2 |
| 20260508174914 | 68 | 251 | 3.5 | 9.6 | 0.00 | 0.00 | 0.00 | 44 | 1011.2 |
| 20260508174448 | 68 | 241 | 6.1 | 9.6 | 0.00 | 0.00 | 0.00 | 44 | 1011.4 |
| 20260508173921 | 68 | 223 | 6.1 | 8.7 | 0.00 | 0.00 | 0.00 | 50 | 1011.6 |
| 20260508173454 | 68 | 215 | 6.1 | 13.0 | 0.00 | 0.00 | 0.00 | 45 | 1011.6 |
| 20260508171926 | 67 | 237 | 6.1 | 13.0 | 0.00 | 0.00 | 0.00 | 44 | 1012.1 |
| 20260508171500 | 67 | 220 | 7.8 | 10.4 | 0.00 | 0.00 | 0.00 | 45 | 1012.2 |
| 20260508170932 | 67 | 251 | 5.2 | 10.4 | 0.00 | 0.00 | 0.00 | 46 | 1012.3 |
| 20260508170506 | 67 | 224 | 2.6 | 13.0 | 0.00 | 0.00 | 0.00 | 47 | 1012.3 |
| 20260508165916 | 66 | 258 | 7.0 | 13.0 | 0.00 | 0.00 | 0.00 | 46 | 1012.3 |
| 20260508165006 | 66 | 243 | 7.8 | 8.7 | 0.00 | 0.00 | 0.00 | 48 | 1012.6 |
| 20260508164439 | 66 | 249 | 7.0 | 9.6 | 0.00 | 0.00 | 0.00 | 47 | 1012.9 |
| 20260508163436 | 66 | 288 | 1.7 | 8.7 | 0.00 | 0.00 | 0.00 | 51 | 1013.0 |
| 20260508162001 | 65 | 203 | 3.5 | 9.6 | 0.00 | 0.00 | 0.00 | 50 | 1013.1 |
| 20260508161434 | 65 | 166 | 7.0 | 9.6 | 0.00 | 0.00 | 0.00 | 48 | 1013.2 |
| 20260508160907 | 65 | 221 | 5.2 | 13.0 | 0.00 | 0.00 | 0.00 | 49 | 1013.2 |
| 20260508160441 | 65 | 242 | 6.1 | 13.0 | 0.00 | 0.00 | 0.00 | 47 | 1013.2 |
| 20260508155937 | 65 | 245 | 5.2 | 8.7 | 0.00 | 0.00 | 0.00 | 52 | 1013.3 |
| 20260508154947 | 65 | 264 | 3.5 | 10.4 | 0.00 | 0.00 | 0.00 | 51 | 1013.4 |
| 20260508154419 | 64 | 231 | 6.1 | 10.4 | 0.00 | 0.00 | 0.00 | 52 | 1013.5 |
| 20260508153408 | 63 | 228 | 4.3 | 9.6 | 0.00 | 0.00 | 0.00 | 52 | 1013.8 |
| 20260508151952 | 63 | 199 | 7.8 | 10.4 | 0.00 | 0.00 | 0.00 | 52 | 1013.9 |
| 20260508151408 | 63 | 235 | 6.1 | 10.4 | 0.00 | 0.00 | 0.00 | 55 | 1014.0 |
| 20260508150943 | 62 | 212 | 5.2 | 10.4 | 0.00 | 0.00 | 0.00 | 52 | 1014.1 |
| 20260508150416 | 62 | 232 | 4.3 | 11.3 | 0.00 | 0.00 | 0.00 | 53 | 1014.2 |
| 20260508145947 | 61 | 234 | 7.0 | 11.3 | 0.00 | 0.00 | 0.00 | 53 | 1014.1 |
| 20260508144957 | 61 | 245 | 6.1 | 9.6 | 0.00 | 0.00 | 0.00 | 54 | 1014.0 |
| 20260508144430 | 61 | 230 | 3.5 | 9.6 | 0.00 | 0.00 | 0.00 | 55 | 1014.0 |
| 20260508144004 | 60 | 243 | 4.3 | 9.6 | 0.00 | 0.00 | 0.00 | 57 | 1014.2 |
| 20260508142413 | 59 | 178 | 4.3 | 7.0 | 0.00 | 0.00 | 0.00 | 59 | 1014.2 |
| 20260508142006 | 58 | 230 | 0.9 | 7.0 | 0.00 | 0.00 | 0.00 | 61 | 1014.2 |
| 20260508141438 | 58 | 204 | 2.6 | 7.8 | 0.00 | 0.00 | 0.00 | 61 | 1014.3 |
| 20260508140448 | 57 | 246 | 5.2 | 9.6 | 0.00 | 0.00 | 0.00 | 62 | 1014.3 |
| 20260508134939 | 55 | 243 | 4.3 | 5.2 | 0.00 | 0.00 | 0.00 | 66 | 1014.5 |
| 20260508133949 | 53 | 244 | 3.5 | 7.0 | 0.00 | 0.00 | 0.00 | 67 | 1014.4 |
| 20260508132938 | 52 | 246 | 2.6 | 6.1 | 0.00 | 0.00 | 0.00 | 69 | 1014.5 |
| 20260508132411 | 52 | 189 | 2.6 | 6.1 | 0.00 | 0.00 | 0.00 | 69 | 1014.5 |
| 20260508131501 | 51 | 193 | 3.5 | 6.1 | 0.00 | 0.00 | 0.00 | 69 | 1014.5 |
| 20260508130918 | 51 | 183 | 2.6 | 5.2 | 0.00 | 0.00 | 0.00 | 70 | 1014.5 |
| 20260508130452 | 50 | 216 | 2.6 | 7.0 | 0.00 | 0.00 | 0.00 | 71 | 1014.4 |
| 20260508125921 | 50 | 201 | 4.3 | 7.0 | 0.00 | 0.00 | 0.00 | 70 | 1014.3 |
| 20260508125456 | 50 | 236 | 3.5 | 5.2 | 0.00 | 0.00 | 0.00 | 71 | 1014.5 |
| 20260508124929 | 49 | 243 | 3.5 | 6.1 | 0.00 | 0.00 | 0.00 | 72 | 1014.4 |
| 20260508123958 | 49 | 226 | 2.6 | 6.1 | 0.00 | 0.00 | 0.00 | 73 | 1014.3 |
| 20260508123414 | 48 | 213 | 3.5 | 4.3 | 0.00 | 0.00 | 0.00 | 73 | 1014.4 |
| 20260508122948 | 48 | 193 | 2.6 | 3.5 | 0.00 | 0.00 | 0.00 | 74 | 1014.3 |
| 20260508121937 | 47 | 218 | 2.6 | 3.5 | 0.00 | 0.00 | 0.00 | 77 | 1014.2 |
| 20260508121410 | 46 | 241 | 0.0 | 2.6 | 0.00 | 0.00 | 0.00 | 78 | 1014.1 |
| 20260508120419 | 45 | 257 | 0.9 | 4.3 | 0.00 | 0.00 | 0.00 | 79 | 1014.2 |
| 20260508115930 | 45 | 228 | 2.6 | 4.3 | 0.00 | 0.00 | 0.00 | 80 | 1014.3 |
| 20260508115504 | 45 | 243 | 0.0 | 1.7 | 0.00 | 0.00 | 0.00 | 81 | 1014.2 |
| 20260508114455 | 43 | 243 | 0.0 | 0.0 | 0.00 | 0.00 | 0.00 | 82 | 1014.0 |
| 20260508113928 | 43 | 243 | 0.0 | 1.7 | 0.00 | 0.00 | 0.00 | 83 | 1014.1 |
| 20260508112432 | 42 | 243 | 0.0 | 0.0 | 0.00 | 0.00 | 0.00 | 84 | 1014.0 |
| 20260508112006 | 42 | 243 | 0.0 | 0.0 | 0.00 | 0.00 | 0.00 | 84 | 1014.0 |
| 20260508111439 | 42 | 243 | 0.0 | 0.0 | 0.00 | 0.00 | 0.00 | 84 | 1013.9 |
| 20260508105001 | 42 | 243 | 0.0 | 0.0 | 0.00 | 0.00 | 0.00 | 84 | 1013.8 |
| 20260508104434 | 42 | 243 | 0.0 | 0.0 | 0.00 | 0.00 | 0.00 | 84 | 1013.7 |
| 20260508103907 | 42 | 243 | 0.0 | 0.0 | 0.00 | 0.00 | 0.00 | 84 | 1013.7 |
| 20260508103441 | 42 | 243 | 0.0 | 0.0 | 0.00 | 0.00 | 0.00 | 85 | 1013.7 |
| 20260508102438 | 42 | 243 | 0.0 | 0.0 | 0.00 | 0.00 | 0.00 | 85 | 1013.8 |
| 20260508101911 | 42 | 243 | 0.0 | 0.0 | 0.00 | 0.00 | 0.00 | 85 | 1013.7 |
| 20260508101444 | 42 | 243 | 0.0 | 0.0 | 0.00 | 0.00 | 0.00 | 85 | 1013.6 |
| 20260508100918 | 42 | 243 | 0.0 | 0.0 | 0.00 | 0.00 | 0.00 | 85 | 1013.7 |
| 20260508100450 | 42 | 243 | 0.0 | 0.0 | 0.00 | 0.00 | 0.00 | 86 | 1013.7 |
| 20260508093934 | 41 | 243 | 0.0 | 0.0 | 0.00 | 0.00 | 0.00 | 86 | 1013.5 |
| 20260508093407 | 41 | 243 | 0.0 | 0.0 | 0.00 | 0.00 | 0.00 | 86 | 1013.5 |
| 20260508092456 | 41 | 243 | 0.0 | 0.0 | 0.00 | 0.00 | 0.00 | 86 | 1013.5 |
| 20260508091928 | 41 | 243 | 0.0 | 0.0 | 0.00 | 0.00 | 0.00 | 86 | 1013.5 |
| 20260508091502 | 41 | 243 | 0.0 | 0.0 | 0.00 | 0.00 | 0.00 | 86 | 1013.4 |
| 20260508090935 | 41 | 243 | 0.0 | 0.0 | 0.00 | 0.00 | 0.00 | 86 | 1013.4 |
| 20260508085908 | 41 | 243 | 0.0 | 0.0 | 0.00 | 0.00 | 0.00 | 85 | 1013.5 |
| 20260508085442 | 41 | 243 | 0.0 | 0.0 | 0.00 | 0.00 | 0.00 | 85 | 1013.4 |
| 20260508084431 | 41 | 243 | 0.0 | 0.0 | 0.00 | 0.00 | 0.00 | 86 | 1013.3 |
| 20260508082431 | 42 | 243 | 0.0 | 0.0 | 0.00 | 0.00 | 0.00 | 85 | 1013.3 |
| 20260508082005 | 42 | 243 | 0.0 | 0.0 | 0.00 | 0.00 | 0.00 | 84 | 1013.3 |
| 20260508080958 | 42 | 243 | 0.0 | 0.0 | 0.00 | 0.00 | 0.00 | 84 | 1013.3 |
| 20260508080432 | 42 | 243 | 0.0 | 0.0 | 0.00 | 0.00 | 0.00 | 84 | 1013.4 |
| 20260508080003 | 42 | 243 | 0.0 | 0.0 | 0.00 | 0.00 | 0.00 | 83 | 1013.3 |
| 20260508074952 | 42 | 243 | 0.0 | 0.0 | 0.00 | 0.00 | 0.00 | 82 | 1013.3 |
| 20260508073941 | 43 | 243 | 0.0 | 0.0 | 0.00 | 0.00 | 0.00 | 82 | 1013.4 |
| 20260508072938 | 42 | 243 | 0.0 | 0.0 | 0.00 | 0.00 | 0.00 | 83 | 1013.1 |
| 20260508072411 | 42 | 243 | 0.0 | 0.0 | 0.00 | 0.00 | 0.00 | 83 | 1013.2 |
| 20260508071945 | 42 | 243 | 0.0 | 0.0 | 0.00 | 0.00 | 0.00 | 84 | 1013.2 |
| 20260508064942 | 43 | 243 | 0.0 | 0.0 | 0.00 | 0.00 | 0.00 | 83 | 1013.8 |
| 20260508064414 | 43 | 243 | 0.0 | 0.0 | 0.00 | 0.00 | 0.00 | 83 | 1014.0 |
| 20260508063424 | 43 | 243 | 0.0 | 0.0 | 0.00 | 0.00 | 0.00 | 83 | 1013.9 |
| 20260508062958 | 43 | 243 | 0.0 | 0.0 | 0.00 | 0.00 | 0.00 | 82 | 1014.0 |
| 20260508061431 | 43 | 243 | 0.0 | 0.0 | 0.00 | 0.00 | 0.00 | 82 | 1014.2 |
| 20260508061004 | 43 | 243 | 0.0 | 0.0 | 0.00 | 0.00 | 0.00 | 82 | 1014.2 |
| 20260508060437 | 43 | 243 | 0.0 | 0.0 | 0.00 | 0.00 | 0.00 | 81 | 1014.1 |
| 20260508055925 | 43 | 243 | 0.0 | 0.0 | 0.00 | 0.00 | 0.00 | 81 | 1014.1 |
| 20260508055412 | 43 | 243 | 0.0 | 0.0 | 0.00 | 0.00 | 0.00 | 81 | 1014.1 |
| 20260508054920 | 43 | 243 | 0.0 | 0.0 | 0.00 | 0.00 | 0.00 | 81 | 1014.2 |
| 20260508054408 | 43 | 243 | 0.0 | 0.0 | 0.00 | 0.00 | 0.00 | 81 | 1014.2 |
| 20260508053916 | 44 | 243 | 0.0 | 0.0 | 0.00 | 0.00 | 0.00 | 81 | 1014.2 |
| 20260508053408 | 44 | 243 | 0.0 | 0.0 | 0.00 | 0.00 | 0.00 | 81 | 1014.1 |
| 20260508052916 | 44 | 243 | 0.0 | 0.0 | 0.00 | 0.00 | 0.00 | 80 | 1014.1 |
| 20260508052424 | 44 | 243 | 0.0 | 0.0 | 0.00 | 0.00 | 0.00 | 80 | 1014.1 |
| 20260508051912 | 44 | 243 | 0.0 | 0.0 | 0.00 | 0.00 | 0.00 | 79 | 1014.1 |
| 20260508051420 | 44 | 243 | 0.0 | 0.0 | 0.00 | 0.00 | 0.00 | 78 | 1014.1 |
| 20260508050908 | 44 | 243 | 0.0 | 0.0 | 0.00 | 0.00 | 0.00 | 78 | 1014.0 |
| 20260508045922 | 45 | 243 | 0.0 | 0.0 | 0.00 | 0.00 | 0.00 | 77 | 1014.1 |
| 20260508045409 | 45 | 243 | 0.0 | 0.0 | 0.00 | 0.00 | 0.00 | 76 | 1014.1 |
| 20260508044407 | 45 | 243 | 0.0 | 0.0 | 0.00 | 0.00 | 0.00 | 75 | 1014.2 |
| 20260508043919 | 46 | 243 | 0.0 | 0.0 | 0.00 | 0.00 | 0.00 | 74 | 1014.2 |
| 20260508043407 | 46 | 243 | 0.0 | 0.0 | 0.00 | 0.00 | 0.00 | 73 | 1014.2 |
| 20260508042915 | 46 | 243 | 0.0 | 0.0 | 0.00 | 0.00 | 0.00 | 73 | 1014.3 |
| 20260508041912 | 46 | 243 | 0.0 | 0.0 | 0.00 | 0.00 | 0.00 | 72 | 1014.0 |
| 20260508040912 | 46 | 243 | 0.0 | 0.0 | 0.00 | 0.00 | 0.00 | 73 | 1013.8 |
| 20260508040420 | 46 | 243 | 0.0 | 0.0 | 0.00 | 0.00 | 0.00 | 73 | 1013.9 |
| 20260508035441 | 46 | 243 | 0.0 | 0.0 | 0.00 | 0.00 | 0.00 | 73 | 1014.0 |
| 20260508034411 | 46 | 243 | 0.0 | 0.0 | 0.00 | 0.00 | 0.00 | 74 | 1013.9 |
| 20260508033944 | 46 | 243 | 0.0 | 0.0 | 0.00 | 0.00 | 0.00 | 74 | 1014.0 |
| 20260508033414 | 46 | 243 | 0.0 | 0.0 | 0.00 | 0.00 | 0.00 | 73 | 1014.0 |
| 20260508032946 | 46 | 243 | 0.0 | 0.0 | 0.00 | 0.00 | 0.00 | 74 | 1014.0 |
| 20260508032459 | 46 | 243 | 0.0 | 0.0 | 0.00 | 0.00 | 0.00 | 75 | 1014.0 |
| 20260508031930 | 46 | 243 | 0.0 | 0.0 | 0.00 | 0.00 | 0.00 | 78 | 1013.9 |
| 20260508030925 | 46 | 243 | 0.0 | 0.0 | 0.00 | 0.00 | 0.00 | 76 | 1013.9 |
| 20260508030500 | 46 | 243 | 0.0 | 0.0 | 0.00 | 0.00 | 0.00 | 76 | 1013.9 |
| 20260508025930 | 46 | 243 | 0.0 | 0.0 | 0.00 | 0.00 | 0.00 | 77 | 1014.0 |
| 20260508024959 | 47 | 243 | 0.0 | 0.0 | 0.00 | 0.00 | 0.00 | 75 | 1013.8 |
| 20260508023947 | 47 | 243 | 0.0 | 0.0 | 0.00 | 0.00 | 0.00 | 75 | 1013.9 |
| 20260508023438 | 47 | 243 | 0.0 | 0.0 | 0.00 | 0.00 | 0.00 | 76 | 1013.8 |
| 20260508022435 | 47 | 243 | 0.0 | 0.0 | 0.00 | 0.00 | 0.00 | 76 | 1013.6 |
| 20260508021423 | 47 | 243 | 0.0 | 0.0 | 0.00 | 0.00 | 0.00 | 75 | 1013.7 |
| 20260508020957 | 48 | 243 | 0.0 | 0.0 | 0.00 | 0.00 | 0.00 | 74 | 1013.7 |
| 20260508015945 | 48 | 243 | 0.0 | 0.0 | 0.00 | 0.00 | 0.00 | 73 | 1013.7 |
| 20260508015500 | 48 | 243 | 0.0 | 0.0 | 0.00 | 0.00 | 0.00 | 73 | 1013.8 |
| 20260508014933 | 48 | 243 | 0.0 | 0.0 | 0.00 | 0.00 | 0.00 | 71 | 1013.6 |
| 20260508013928 | 49 | 243 | 0.0 | 0.0 | 0.00 | 0.00 | 0.00 | 71 | 1013.5 |
| 20260508013502 | 49 | 243 | 0.0 | 0.0 | 0.00 | 0.00 | 0.00 | 70 | 1013.5 |
| 20260508012935 | 49 | 243 | 0.0 | 0.0 | 0.00 | 0.00 | 0.00 | 69 | 1013.5 |
| 20260508012407 | 49 | 243 | 0.0 | 0.0 | 0.00 | 0.00 | 0.00 | 69 | 1013.5 |
| 20260508011941 | 50 | 243 | 0.0 | 0.0 | 0.00 | 0.00 | 0.00 | 68 | 1013.4 |
| 20260508010928 | 51 | 243 | 0.0 | 0.0 | 0.00 | 0.00 | 0.00 | 66 | 1013.3 |
| 20260508010003 | 51 | 243 | 0.0 | 0.0 | 0.00 | 0.00 | 0.00 | 62 | 1013.4 |
| 20260508004952 | 52 | 243 | 0.0 | 0.0 | 0.00 | 0.00 | 0.00 | 61 | 1013.4 |
| 20260508004424 | 53 | 243 | 0.0 | 0.0 | 0.00 | 0.00 | 0.00 | 59 | 1013.3 |
| 20260508003958 | 54 | 243 | 0.0 | 0.0 | 0.00 | 0.00 | 0.00 | 59 | 1013.3 |
| 20260508003430 | 55 | 243 | 0.0 | 0.0 | 0.00 | 0.00 | 0.00 | 56 | 1013.3 |
| 20260508003005 | 56 | 243 | 0.0 | 0.0 | 0.00 | 0.00 | 0.00 | 54 | 1013.2 |